Santa Fe, NM

4:27 AM MDT on May 24, 2017 (GMT -0600)
Santa Fe Municipal

Weather History for KSAF - October, 2012

Change the Weather History Date:

Saturday, October 6, 2012

  Actual Average Record
Temperature  
Mean Temperature 57 °F -  
Max Temperature 75 °F 79 °F 80 °F (1980)
Min Temperature 39 °F 38 °F 32 °F (1998)
Degree Days  
Heating Degree Days 8    
Growing Degree Days 7 (Base 50)    
Moisture  
Dew Point 35 °F    
Average Humidity 58    
Maximum Humidity 82    
Minimum Humidity 13    
Precipitation  
Precipitation 0.00 in - - ()
Sea Level Pressure  
Sea Level Pressure 29.93 in    
Wind  
Wind Speed 17 mph (SSE)    
Max Wind Speed 28 mph    
Max Gust Speed 36 mph    
Visibility 10 miles    
Events      
Averages and records for this station are not official NWS values.
T = Trace of Precipitation, MM = Missing Value Source: NWS Daily Summary

Daily Weather History Graph

Daily Weather History Graph

Search for Another Location

Airport or City:

Trip Planner

Search our weather history database for the weather conditions in past years. The results will help you decide how hot, cold, wet, or windy it might be!

Date:

Astronomy

Oct. 06, 2012 Rise Set
Actual Time 7:03 AM MDT 6:40 PM MDT
Civil Twilight 6:38 AM MDT 7:05 PM MDT
Nautical Twilight 6:08 AM MDT 7:35 PM MDT
Astronomical Twilight 5:39 AM MDT 8:04 PM MDT
Moon 11:07 PM MDT (10/6) 12:51 PM MDT (10/6)
Length of Visible Light 12h 27m
Length of Day
11h 36m
Waning Gibbous, 65% of the Moon is Illuminated
Oct 6
Waning Gibbous
Oct 8
Last Quarter
Oct 15
New
Oct 21
First Quarter
Oct 29
Full

Hourly Weather History & Observations

Time (MDT) Temp. Windchill Dew Point Humidity Pressure Visibility Wind Dir Wind Speed Gust Speed Precip Events Conditions
12:53 AM 53.1 °F - 37.9 °F 57% 29.88 in 10.0 mi SSE 15.0 mph - N/A   Clear
1:53 AM 51.1 °F - 39.0 °F 63% 29.90 in 10.0 mi SSE 18.4 mph 24.2 mph N/A   Clear
2:53 AM 48.0 °F - 37.9 °F 68% 29.91 in 10.0 mi SE 21.9 mph 27.6 mph N/A   Clear
3:53 AM 46.0 °F 39.0 °F 37.0 °F 71% 29.92 in 10.0 mi SE 17.3 mph 23.0 mph N/A   Clear
4:53 AM 46.0 °F 39.0 °F 37.9 °F 73% 29.92 in 10.0 mi SE 17.3 mph - N/A   Clear
5:53 AM 44.1 °F 37.7 °F 37.9 °F 79% 29.94 in 10.0 mi SE 12.7 mph - N/A   Partly Cloudy
6:53 AM 43.0 °F 36.0 °F 37.9 °F 82% 29.96 in 10.0 mi SE 13.8 mph 20.7 mph N/A   Partly Cloudy
7:53 AM 43.0 °F 35.7 °F 37.9 °F 82% 30.00 in 10.0 mi SE 15.0 mph - N/A   Scattered Clouds
8:53 AM 44.1 °F 36.8 °F 37.9 °F 79% 30.01 in 10.0 mi SSE 16.1 mph - N/A   Clear
9:53 AM 48.0 °F - 39.0 °F 71% 29.96 in 10.0 mi SSE 18.4 mph - N/A   Clear
10:53 AM 53.1 °F - 37.9 °F 57% 29.96 in 10.0 mi SSE 17.3 mph - N/A   Clear
11:53 AM 57.9 °F - 37.0 °F 46% 29.91 in 10.0 mi SSE 13.8 mph - N/A   Clear
12:53 PM 64.9 °F - 36.0 °F 34% 29.85 in 10.0 mi South 13.8 mph 21.9 mph N/A   Clear
1:53 PM 70.0 °F - 30.0 °F 23% 29.80 in 10.0 mi WSW 12.7 mph 25.3 mph N/A   Clear
2:53 PM 72.0 °F - 27.0 °F 19% 29.78 in 10.0 mi WSW 10.4 mph 25.3 mph N/A   Clear
3:53 PM 75.0 °F - 24.1 °F 15% 29.75 in 10.0 mi West 18.4 mph 31.1 mph N/A   Partly Cloudy
4:53 PM 71.1 °F - 18.0 °F 13% 29.76 in 10.0 mi SW 10.4 mph - N/A   Partly Cloudy
5:33 PM 59.0 °F - 35.6 °F 42% 30.01 in 10.0 mi SE 23.0 mph 29.9 mph N/A   Partly Cloudy
5:44 PM 53.6 °F - 37.4 °F 54% 30.02 in 10.0 mi SE 19.6 mph 32.2 mph N/A   Partly Cloudy
5:53 PM 53.1 °F - 37.0 °F 55% 29.88 in 10.0 mi SE 18.4 mph 29.9 mph N/A   Partly Cloudy
6:53 PM 46.9 °F - 37.0 °F 68% 29.94 in 10.0 mi ESE 27.6 mph 35.7 mph N/A   Clear
7:53 PM 43.0 °F 34.2 °F 35.1 °F 74% 30.02 in 10.0 mi SE 20.7 mph - N/A   Clear
8:53 PM 41.0 °F 30.7 °F 33.1 °F 73% 30.05 in 10.0 mi SE 25.3 mph 32.2 mph N/A   Clear
10:53 PM 39.9 °F 30.8 °F 32.0 °F 73% 30.05 in 10.0 mi SE 18.4 mph 27.6 mph N/A   Clear
11:53 PM 41.0 °F 32.2 °F 32.0 °F 70% 30.02 in 10.0 mi SE 18.4 mph 28.8 mph N/A   Clear